Voltar ao catálogo

STARLINK-38065

AtivoComunicaçõesSSO
NORAD 69982·PAYLOAD·🇺🇸 United States

Lançado Jul 11, 2026 de Vandenberg Space Force Base

Loading…

Próximas Passagens (próximas 24 horas)

TLE

AtualizadoSource: CelesTrak SupGP

Época: Sep 15, 2026, 02:41 UTC

1 69982C 26159H   26258.11229167 -.02632300  00000+0 -37267-1 0  2580
2 69982  97.2852  99.8539 0001895 103.1354 178.5845 15.57866531    18

Acompanhe STARLINK-38065 em tempo real com AllMySat

Download on the App Store